Bellingham, WA

6:40 PM PST on February 26, 2017 (GMT -0800)
Bellingham International

Weather History for KBLI - December, 2013

Change the Weather History Date:

Tuesday, December 31, 2013

  Actual Average Record
Temperature  
Mean Temperature 44 °F 38 °F  
Max Temperature 45 °F 44 °F 60 °F (1963)
Min Temperature 42 °F 32 °F 9 °F (1951)
Degree Days  
Heating Degree Days 21 27  
Month to date heating degree days 892 827  
Cooling Degree Days 0 0  
Month to date cooling degree days 0 0  
Year to date cooling degree days 95 42  
Moisture  
Dew Point 42 °F    
Average Humidity 90    
Maximum Humidity 96    
Minimum Humidity 83    
Precipitation  
Precipitation 0.04 in 0.12 in 1.55 in (1953)
Month to date precipitation 3.14 4.22  
Year to date precipitation 30.81 35.83  
Sea Level Pressure  
Sea Level Pressure 30.30 in    
Wind  
Wind Speed 6 mph (South)    
Max Wind Speed 14 mph    
Max Gust Speed 20 mph    
Visibility 4 miles    
Events Fog , Rain    
T = Trace of Precipitation, MM = Missing Value Source: NWS Daily Summary

Daily Weather History Graph

Daily Weather History Graph

Search for Another Location

Airport or City:

Trip Planner

Search our weather history database for the weather conditions in past years. The results will help you decide how hot, cold, wet, or windy it might be!

Date:

Astronomy

Dec. 31, 2013 Rise Set
Actual Time 8:03 AM PST 4:23 PM PST
Civil Twilight 7:26 AM PST 5:00 PM PST
Nautical Twilight 6:46 AM PST 5:40 PM PST
Astronomical Twilight 6:07 AM PST 6:19 PM PST
Moon 6:57 AM PST (12/31) 4:10 PM PST (12/31)
Length of Visible Light 9h 34m
Length of Day
8h 20m
Waning Crescent, 1% of the Moon is Illuminated
Dec 31
Waning Crescent
Jan 1
New
Jan 7
First Quarter
Jan 15
Full
Jan 23
Last Quarter

Hourly Weather History & Observations

Time (PST) Temp. Windchill Dew Point Humidity Pressure Visibility Wind Dir Wind Speed Gust Speed Precip Events Conditions
12:53 AM 45.0 °F 41.8 °F 41.0 °F 86% 30.20 in 10.0 mi SSE 5.8 mph - 0.01 in   Overcast
1:53 AM 45.0 °F 40.1 °F 39.9 °F 82% 30.20 in 10.0 mi South 9.2 mph - N/A   Overcast
2:21 AM 44.6 °F 39.2 °F 41.0 °F 87% 30.18 in 10.0 mi South 10.4 mph - N/A   Overcast
2:53 AM 44.1 °F 40.1 °F 41.0 °F 89% 30.20 in 10.0 mi South 6.9 mph - N/A   Overcast
3:53 AM 44.1 °F 38.1 °F 41.0 °F 89% 30.20 in 10.0 mi South 11.5 mph 18.4 mph N/A   Overcast
4:06 AM 44.6 °F 40.2 °F 41.0 °F 87% 30.19 in 10.0 mi South 8.1 mph 17.3 mph N/A   Overcast
4:17 AM 44.6 °F 39.2 °F 41.0 °F 87% 30.19 in 10.0 mi South 10.4 mph - N/A   Overcast
4:53 AM 44.1 °F 37.7 °F 41.0 °F 89% 30.22 in 6.0 mi SSE 12.7 mph 19.6 mph N/A   Overcast
5:53 AM 44.1 °F 38.6 °F 41.0 °F 89% 30.22 in 10.0 mi SSE 10.4 mph - N/A   Overcast
6:53 AM 45.0 °F 40.1 °F 39.9 °F 82% 30.24 in 8.0 mi South 9.2 mph - N/A   Overcast
7:53 AM 44.1 °F 39.5 °F 41.0 °F 89% 30.24 in 4.0 mi South 8.1 mph - 0.00 in Rain Light Rain
8:22 AM 44.6 °F 40.7 °F 41.0 °F 87% 30.23 in 3.0 mi South 6.9 mph - 0.01 in Rain Light Rain
8:53 AM 44.1 °F 39.5 °F 41.0 °F 89% 30.26 in 3.0 mi South 8.1 mph - 0.01 in   Overcast
9:40 AM 44.6 °F 39.7 °F 41.0 °F 87% 30.25 in 4.0 mi South 9.2 mph - N/A   Overcast
9:53 AM 44.1 °F 39.0 °F 41.0 °F 89% 30.28 in 4.0 mi South 9.2 mph - N/A   Overcast
10:33 AM 44.6 °F 39.7 °F 42.8 °F 93% 30.27 in 4.0 mi South 9.2 mph - N/A   Overcast
10:53 AM 44.1 °F 39.5 °F 42.1 °F 93% 30.30 in 4.0 mi South 8.1 mph - N/A   Overcast
11:49 AM 44.6 °F 40.7 °F 42.8 °F 93% 30.28 in 4.0 mi South 6.9 mph - 0.00 in Rain Light Rain
11:53 AM 45.0 °F 40.6 °F 42.1 °F 90% 30.30 in 4.0 mi South 8.1 mph - 0.01 in Rain Light Rain
11:58 AM - - 50.0 °F N/A% 30.28 in - North - - N/A   Unknown
12:03 PM 44.6 °F 40.7 °F 42.8 °F 93% 30.27 in 2.5 mi South 6.9 mph - 0.00 in Rain Light Rain
12:19 PM 44.6 °F 40.2 °F 42.8 °F 93% 30.28 in 3.0 mi SSE 8.1 mph - 0.01 in Rain Light Rain
12:26 PM 44.6 °F 40.2 °F 42.8 °F 93% 30.28 in 2.5 mi SSE 8.1 mph - 0.01 in   Overcast
12:33 PM 44.6 °F 40.7 °F 42.8 °F 93% 30.27 in 3.0 mi SSE 6.9 mph - 0.01 in   Overcast
12:42 PM 44.6 °F 40.7 °F 42.8 °F 93% 30.27 in 3.0 mi SSE 6.9 mph - 0.01 in   Overcast
12:53 PM 44.1 °F 40.8 °F 43.0 °F 96% 30.30 in 4.0 mi South 5.8 mph - 0.01 in   Overcast
1:05 PM 44.6 °F 41.4 °F 42.8 °F 93% 30.27 in 10.0 mi South 5.8 mph - N/A   Overcast
1:30 PM 44.6 °F 41.4 °F 42.8 °F 93% 30.28 in 10.0 mi South 5.8 mph - N/A   Overcast
1:37 PM 44.6 °F 41.4 °F 42.8 °F 93% 30.28 in 7.0 mi South 5.8 mph - 0.00 in Rain Light Rain
1:53 PM 45.0 °F 43.5 °F 42.1 °F 90% 30.31 in 2.0 mi South 3.5 mph - 0.00 in Rain Light Rain
2:05 PM 44.6 °F 43.1 °F 42.8 °F 93% 30.29 in 1.5 mi South 3.5 mph - 0.00 in Rain Light Rain
2:48 PM 44.6 °F 40.7 °F 42.8 °F 93% 30.30 in 2.0 mi South 6.9 mph - 0.01 in   Overcast
2:53 PM 45.0 °F 42.6 °F 43.0 °F 93% 30.32 in 2.0 mi South 4.6 mph - 0.01 in   Overcast
3:07 PM 44.6 °F 42.2 °F 42.8 °F 93% 30.30 in 3.0 mi South 4.6 mph - N/A   Overcast
3:28 PM 44.6 °F 42.2 °F 42.8 °F 93% 30.31 in 1.0 mi South 4.6 mph - N/A   Overcast
3:53 PM 45.0 °F 42.6 °F 43.0 °F 93% 30.34 in 1.0 mi South 4.6 mph - N/A   Overcast
3:56 PM 44.6 °F 42.2 °F 42.8 °F 93% 30.31 in 5.0 mi South 4.6 mph - N/A   Overcast
4:18 PM 44.6 °F 42.2 °F 42.8 °F 93% 30.32 in 3.0 mi South 4.6 mph - N/A   Overcast
4:53 PM 44.1 °F - 43.0 °F 96% 30.36 in 3.0 mi Calm Calm - N/A   Overcast
5:31 PM 44.6 °F 43.1 °F 42.8 °F 93% 30.34 in 5.0 mi South 3.5 mph - N/A   Overcast
5:39 PM 44.6 °F 43.1 °F 42.8 °F 93% 30.34 in 5.0 mi South 3.5 mph - N/A   Overcast
5:53 PM 44.1 °F 40.8 °F 43.0 °F 96% 30.37 in 6.0 mi South 5.8 mph - N/A   Overcast
6:00 PM 44.6 °F 43.1 °F 42.8 °F 93% 30.34 in 6.0 mi South 3.5 mph - N/A   Overcast
6:53 PM 44.1 °F 42.5 °F 43.0 °F 96% 30.37 in 5.0 mi South 3.5 mph - N/A   Overcast
7:28 PM 44.6 °F 42.2 °F 42.8 °F 93% 30.35 in 5.0 mi South 4.6 mph - N/A   Overcast
7:53 PM 44.1 °F 40.8 °F 43.0 °F 96% 30.38 in 6.0 mi South 5.8 mph - N/A   Overcast
8:53 PM 44.1 °F - 42.1 °F 93% 30.39 in 3.0 mi Calm Calm - N/A   Overcast
9:20 PM 42.8 °F - 42.8 °F 100% 30.36 in 1.5 mi Calm Calm - N/A   Overcast
9:31 PM 42.8 °F - 42.8 °F 100% 30.37 in 0.8 mi Calm Calm - N/A   Overcast
9:53 PM 43.0 °F - 41.0 °F 93% 30.40 in 0.8 mi Calm Calm - N/A   Overcast
10:00 PM 42.8 °F - 42.8 °F 100% 30.37 in 1.0 mi Calm Calm - N/A   Overcast
10:10 PM 42.8 °F - 42.8 °F 100% 30.37 in 2.0 mi Calm Calm - N/A   Overcast
10:27 PM 42.8 °F - 42.8 °F 100% 30.37 in 1.8 mi Calm Calm - N/A   Overcast
10:49 PM 44.6 °F - 42.8 °F 93% 30.38 in 0.8 mi Calm Calm - N/A   Mist
10:53 PM 44.1 °F - 43.0 °F 96% 30.40 in 0.8 mi Calm Calm - N/A   Mist
11:11 PM 44.6 °F - 42.8 °F 93% 30.39 in 0.5 mi Calm Calm - N/A Fog Fog
11:26 PM 42.8 °F - 42.8 °F 100% 30.39 in 0.8 mi Calm Calm - N/A   Overcast
11:42 PM 44.6 °F - 42.8 °F 93% 30.39 in 1.5 mi Calm Calm - N/A   Overcast
11:53 PM 44.1 °F - 42.1 °F 93% 30.41 in 2.0 mi Calm Calm - N/A   Overcast